When you browse on this site, cookies collect data to enhance your experience and personalize the content and advertising you see.
Visit our Privacy Policy to learn more. By continuing to use the site, you agree to this use of cookies and data.
  • In Hungary
  • List of Countries
  • For 7 days
  • Water Temperature
  • Weather Map
  • News
  • Weather Widgets
  • user-avatar
    Login

    Hourly Weather Obrazcovo

    Today, 20 January, Monday

    Time Temperature Precipitation Wind Pressure Humidity
    00:00 -1°C° 0 mm 4 mps 752 mmHg 90%
    01:00 -1°C° 0 mm 4 mps 752 mmHg 90%
    02:00 -1°C° 0 mm 4 mps 752 mmHg 90%
    03:00 -1°C° 0 mm 5 mps 752 mmHg 90%
    04:00 -1°C° 0 mm 5 mps 752 mmHg 90%
    05:00 -1°C° 0 mm 5 mps 751 mmHg 90%
    06:00 -1°C° 0 mm 5 mps 751 mmHg 89%
    07:00 -1°C° 0 mm 5 mps 751 mmHg 89%
    08:00 -1°C° 0 mm 4 mps 751 mmHg 89%
    09:00 -1°C° 0 mm 5 mps 751 mmHg 88%
    10:00 0°C° 0 mm 5 mps 752 mmHg 87%
    11:00 0°C° 0 mm 5 mps 752 mmHg 86%
    12:00 0°C° 0 mm 5 mps 752 mmHg 86%
    13:00 0°C° 0 mm 5 mps 752 mmHg 87%
    14:00 -1°C° 0 mm 5 mps 752 mmHg 87%
    15:00 -1°C° 0 mm 5 mps 751 mmHg 87%
    16:00 -1°C° 0 mm 5 mps 751 mmHg 87%
    17:00 -1°C° 0 mm 4 mps 751 mmHg 87%
    18:00 -1°C° 0 mm 5 mps 750 mmHg 86%
    19:00 -1°C° 0 mm 5 mps 750 mmHg 84%
    20:00 -2°C° 0 mm 5 mps 750 mmHg 83%
    21:00 -2°C° 0 mm 5 mps 749 mmHg 83%
    22:00 -2°C° 0 mm 5 mps 749 mmHg 84%
    23:00 -2°C° 0 mm 5 mps 748 mmHg 84%

    Tomorrow, 21 January, Tuesday

    Time Temperature Precipitation Wind Pressure Humidity
    00:00 -2°C° 0 mm 5 mps 748 mmHg 84%
    01:00 -2°C° 0 mm 5 mps 747 mmHg 84%
    02:00 -3°C° 0 mm 6 mps 747 mmHg 85%
    03:00 -3°C° 0 mm 6 mps 745 mmHg 86%
    04:00 -3°C° 0 mm 6 mps 744 mmHg 87%
    05:00 -2°C° 0 mm 7 mps 743 mmHg 89%
    06:00 -2°C° 0 mm 7 mps 743 mmHg 89%
    07:00 -1°C° 0 mm 7 mps 742 mmHg 89%
    08:00 -1°C° 0 mm 7 mps 741 mmHg 89%
    09:00 +1°C° 0 mm 6 mps 741 mmHg 90%
    10:00 +1°C° 0 mm 6 mps 740 mmHg 90%
    11:00 +2°C° 0 mm 6 mps 739 mmHg 91%
    12:00 +2°C° 0 mm 6 mps 739 mmHg 91%
    13:00 +2°C° 0 mm 6 mps 738 mmHg 91%
    14:00 +3°C° 0 mm 6 mps 738 mmHg 91%
    15:00 +3°C° 0.3 mm 6 mps 737 mmHg 91%
    16:00 +3°C° 0.3 mm 6 mps 736 mmHg 91%
    17:00 +3°C° 0.3 mm 6 mps 735 mmHg 91%
    18:00 +3°C° 0.5 mm 6 mps 735 mmHg 90%
    19:00 +3°C° 0.5 mm 6 mps 735 mmHg 89%
    20:00 +3°C° 0.5 mm 6 mps 735 mmHg 89%
    21:00 +2°C° 0 mm 6 mps 735 mmHg 85%
    22:00 +1°C° 0 mm 6 mps 735 mmHg 81%
    23:00 -1°C° 0 mm 6 mps 735 mmHg 78%

    Day after tomorrow, 22 January, Wednesday

    Time Temperature Precipitation Wind Pressure Humidity
    00:00 -2°C° 0 mm 6 mps 735 mmHg 77%
    01:00 -2°C° 0 mm 6 mps 735 mmHg 76%
    02:00 -2°C° 0 mm 5 mps 735 mmHg 75%
    03:00 -2°C° 0 mm 5 mps 735 mmHg 77%
    04:00 -2°C° 0 mm 5 mps 734 mmHg 79%
    05:00 -4°C° 0 mm 5 mps 734 mmHg 80%
    06:00 -4°C° 0 mm 5 mps 733 mmHg 81%
    07:00 -4°C° 0 mm 5 mps 733 mmHg 82%
    08:00 -4°C° 0 mm 5 mps 733 mmHg 83%
    09:00 -3°C° 0.1 mm 6 mps 732 mmHg 81%
    10:00 -3°C° 0.1 mm 6 mps 732 mmHg 78%
    11:00 -3°C° 0.1 mm 6 mps 732 mmHg 76%
    12:00 -3°C° 0.2 mm 6 mps 731 mmHg 74%
    13:00 -3°C° 0.2 mm 6 mps 731 mmHg 71%
    14:00 -2°C° 0.2 mm 5 mps 731 mmHg 69%
    15:00 -2°C° 0 mm 5 mps 731 mmHg 70%
    16:00 -4°C° 0 mm 5 mps 731 mmHg 72%
    17:00 -5°C° 0 mm 5 mps 731 mmHg 74%
    18:00 -5°C° 0 mm 5 mps 731 mmHg 76%
    19:00 -5°C° 0 mm 5 mps 732 mmHg 79%
    20:00 -5°C° 0 mm 5 mps 732 mmHg 82%
    21:00 -5°C° 0 mm 5 mps 732 mmHg 80%
    22:00 -5°C° 0 mm 5 mps 733 mmHg 77%
    23:00 -5°C° 0 mm 6 mps 733 mmHg 74%

    23 January, Thursday

    Time Temperature Precipitation Wind Pressure Humidity
    00:00 -6°C° 0 mm 6 mps 734 mmHg 72%
    01:00 -8°C° 0 mm 6 mps 735 mmHg 69%
    02:00 -8°C° 0 mm 7 mps 735 mmHg 67%
    03:00 -8°C° 0 mm 7 mps 736 mmHg 67%
    04:00 -9°C° 0 mm 7 mps 736 mmHg 66%
    05:00 -9°C° 0 mm 7 mps 737 mmHg 66%
    06:00 -9°C° 0 mm 7 mps 737 mmHg 63%
    07:00 -9°C° 0 mm 6 mps 738 mmHg 61%
    08:00 -9°C° 0 mm 6 mps 739 mmHg 58%
    09:00 -9°C° 0 mm 7 mps 739 mmHg 56%
    10:00 -8°C° 0 mm 7 mps 740 mmHg 54%
    11:00 -8°C° 0 mm 7 mps 740 mmHg 52%
    12:00 -8°C° 0 mm 7 mps 741 mmHg 52%
    13:00 -8°C° 0 mm 7 mps 741 mmHg 52%
    14:00 -8°C° 0 mm 6 mps 742 mmHg 51%
    15:00 -7°C° 0 mm 5 mps 742 mmHg 54%
    16:00 -8°C° 0 mm 4 mps 742 mmHg 58%
    17:00 -7°C° 0 mm 3 mps 743 mmHg 61%
    18:00 -7°C° 0 mm 3 mps 743 mmHg 63%
    19:00 -6°C° 0 mm 2 mps 743 mmHg 65%
    20:00 -6°C° 0 mm 2 mps 743 mmHg 68%
    21:00 -7°C° 0 mm 3 mps 743 mmHg 69%
    22:00 -6°C° 0 mm 3 mps 742 mmHg 71%
    23:00 -7°C° 0 mm 4 mps 742 mmHg 72%

    24 January, Friday

    Time Temperature Precipitation Wind Pressure Humidity
    00:00 -7°C° 0.1 mm 4 mps 741 mmHg 78%
    01:00 -6°C° 0.1 mm 5 mps 740 mmHg 85%
    02:00 -6°C° 0.1 mm 5 mps 739 mmHg 91%
    03:00 -6°C° 0.3 mm 6 mps 738 mmHg 92%
    04:00 -5°C° 0.3 mm 6 mps 737 mmHg 92%
    05:00 -5°C° 0.3 mm 6 mps 736 mmHg 93%
    06:00 -4°C° 0.3 mm 6 mps 735 mmHg 94%
    07:00 -4°C° 0.3 mm 6 mps 735 mmHg 94%
    08:00 -2°C° 0.3 mm 5 mps 734 mmHg 94%
    09:00 -2°C° 0 mm 6 mps 734 mmHg 91%
    10:00 -1°C° 0 mm 6 mps 734 mmHg 87%
    11:00 +1°C° 0 mm 6 mps 734 mmHg 83%
    12:00 +1°C° 0 mm 6 mps 735 mmHg 81%
    13:00 +1°C° 0 mm 5 mps 735 mmHg 78%
    14:00 +1°C° 0 mm 4 mps 735 mmHg 76%
    15:00 0°C° 0 mm 4 mps 735 mmHg 80%
    16:00 -1°C° 0 mm 4 mps 736 mmHg 83%
    17:00 -1°C° 0 mm 3 mps 736 mmHg 87%
    18:00 -1°C° 0 mm 3 mps 737 mmHg 89%
    19:00 -1°C° 0 mm 3 mps 737 mmHg 91%
    20:00 -1°C° 0 mm 3 mps 737 mmHg 92%
    21:00 -1°C° 0 mm 3 mps 737 mmHg 93%
    22:00 -2°C° 0 mm 3 mps 737 mmHg 94%
    23:00 -2°C° 0 mm 2 mps 737 mmHg 94%

    25 January, Saturday

    Time Temperature Precipitation Wind Pressure Humidity
    00:00 -1°C° 0 mm 2 mps 737 mmHg 95%
    01:00 -1°C° 0 mm 2 mps 737 mmHg 95%
    02:00 -1°C° 0 mm 2 mps 736 mmHg 96%
    03:00 -1°C° 0.4 mm 2 mps 736 mmHg 96%
    04:00 -1°C° 0.4 mm 2 mps 736 mmHg 97%
    05:00 +1°C° 0.4 mm 2 mps 735 mmHg 98%
    06:00 +1°C° 0.3 mm 2 mps 735 mmHg 98%
    07:00 +1°C° 0.3 mm 3 mps 735 mmHg 97%
    08:00 0°C° 0.3 mm 4 mps 735 mmHg 97%
    09:00 +1°C° 0.1 mm 4 mps 735 mmHg 96%
    10:00 +1°C° 0.1 mm 4 mps 735 mmHg 96%
    11:00 +1°C° 0.1 mm 4 mps 735 mmHg 96%
    12:00 +1°C° 0.1 mm 4 mps 735 mmHg 95%
    13:00 +1°C° 0.1 mm 4 mps 735 mmHg 95%
    14:00 +2°C° 0.1 mm 3 mps 735 mmHg 95%
    15:00 +2°C° 0.1 mm 3 mps 736 mmHg 95%
    16:00 +2°C° 0.1 mm 3 mps 736 mmHg 95%
    17:00 +2°C° 0.1 mm 3 mps 737 mmHg 94%
    18:00 +1°C° 0.1 mm 3 mps 737 mmHg 95%
    19:00 +1°C° 0.1 mm 3 mps 737 mmHg 96%
    20:00 +1°C° 0.1 mm 3 mps 737 mmHg 96%
    21:00 +1°C° 0 mm 3 mps 738 mmHg 96%
    22:00 +1°C° 0 mm 3 mps 738 mmHg 95%
    23:00 +1°C° 0 mm 3 mps 738 mmHg 95%
    Show more